Snowfall_Accumulation
0.0 0.0 0.0 0.0 0.0 0.0 0.0 0.0 0.0 0.0 0.0 0.0 0.0 0.0 0.0 0.0 0.0 0.0 0.0 0.0 0.0 0.0 0.0 0.0 0.0 0.0 0.0 0.0 0.0 0.0 0.0 0.0 0.0 0.0 0.0 0.0 0.0 0.0 0.0 0.0 0.0 0.0 0.0 0.0 0.0 0.0 0.0 0.0 0.0
0.0 0.0 0.0 0.0 0.0 0.3 0.0 0.0 0.0 0.0 0.0 0.0 0.0 0.0 0.0 0.0 0.0 0.0 0.0 0.0 0.0 0.0 0.0 0.0 0.0 0.0 0.0 0.0 0.0 0.0 0.0 0.0 0.0 0.0 0.0 0.0 0.0 0.0 0.0 0.0 0.0 0.0 0.0 0.0 0.0 0.0 0.0 0.0 0.0
0.0 0.0 0.0 0.0 0.1 0.4 0.0 0.0 0.0 0.0 0.0 0.0 0.0 0.0 0.0 0.0 0.0 0.0 0.0 0.0 0.0 0.0 0.0 0.0 0.0 0.0 0.0 0.0 0.0 0.0 0.0 0.0 0.0 0.0 0.0 0.0 0.0 0.0 0.0 0.0 0.0 0.0 0.0 0.0 0.0 0.0 0.0 0.0 0.0
0.0 0.0 0.0 0.0 0.3 0.0 0.0 0.0 0.0 0.0 0.0 0.0 0.0 0.0 0.0 0.0 0.0 0.0 0.0 0.0 0.0 0.0 0.0 0.0 0.0 0.0 0.0 0.0 0.0 0.0 0.0 0.0 0.0 0.0 0.0 0.0 0.0 0.0 0.0 0.0 0.0 0.0 0.0 0.0 0.0 0.0 0.0 0.0 0.0
0.0 0.0 0.0 0.2 0.1 0.0 0.0 0.0 0.0 0.0 0.0 0.0 0.0 0.0 0.0 0.0 0.0 0.0 0.0 0.0 0.0 0.0 0.0 0.0 0.0 0.0 0.0 0.0 0.0 0.0 0.0 0.0 0.0 0.0 0.0 0.0 0.0 0.0 0.0 0.0 0.0 0.0 0.0 0.0 0.0 0.0 0.0 0.0 0.0
0.0 0.0 0.3 0.9 0.2 0.0 0.0 0.0 0.0 0.0 0.0 0.0 0.0 0.0 0.0 0.0 0.0 0.0 0.0 0.0 0.0 0.0 0.0 0.0 0.0 0.0 0.0 0.0 0.0 0.0 0.0 0.0 0.0 0.0 0.0 0.0 0.0 0.0 0.0 0.0 0.0 0.0 0.0 0.0 0.0 0.0 0.0 0.0 0.0
0.0 0.1 0.5 0.5 0.2 0.0 0.0 0.0 0.0 0.0 0.0 0.0 0.0 0.0 0.0 0.0 0.0 0.0 0.0 0.0 0.0 0.0 0.0 0.0 0.0 0.0 0.0 0.0 0.0 0.0 0.0 0.0 0.0 0.0 0.0 0.0 0.0 0.0 0.0 0.0 0.0 0.0 0.0 0.0 0.0 0.0 0.0 0.0 0.0
0.0 0.2 0.5 0.3 0.2 0.1 0.0 0.0 0.0 0.0 0.0 0.0 0.0 0.0 0.0 0.0 0.0 0.0 0.0 0.0 0.0 0.0 0.0 0.0 0.0 0.0 0.0 0.0 0.0 0.0 0.0 0.0 0.0 0.0 0.0 0.0 0.0 0.0 0.0 0.0 0.0 0.0 0.0 0.0 0.0 0.0 0.0 0.0 0.0
0.0 0.3 1.1 0.4 0.2 0.1 0.0 0.1 0.0 0.0 0.0 0.0 0.0 0.0 0.0 0.0 0.0 0.0 0.0 0.0 0.0 0.0 0.0 0.0 0.0 0.0 0.0 0.0 0.0 0.0 0.0 0.0 0.0 0.0 0.0 0.0 0.0 0.0 0.0 0.0 0.0 0.0 0.0 0.0 0.0 0.0 0.0 0.0 0.0
0.2 1.1 0.5 0.1 0.1 0.1 0.1 0.1 0.1 0.0 0.0 0.0 0.0 0.0 0.0 0.0 0.0 0.0 0.0 0.0 0.0 0.0 0.0 0.0 0.0 0.0 0.0 0.0 0.0 0.0 0.0 0.0 0.0 0.0 0.0 0.0 0.0 0.0 0.0 0.0 0.0 0.0 0.0 0.0 0.0 0.0 0.0 0.0 0.0
0.3 0.5 0.2 0.1 0.1 0.1 0.1 0.1 0.1 0.1 0.1 0.1 0.1 0.0 0.0 0.0 0.0 0.0 0.0 0.0 0.0 0.0 0.0 0.0 0.0 0.0 0.0 0.0 0.0 0.0 0.0 0.0 0.0 0.0 0.0 0.0 0.0 0.0 0.0 0.0 0.0 0.0 0.0 0.0 0.0 0.0 0.0 0.0 0.0
0.3 0.2 0.1 0.3 0.1 0.1 0.2 0.2 0.1 0.2 0.4 0.2 0.1 0.0 0.0 0.0 0.0 0.0 0.0 0.0 0.0 0.0 0.0 0.0 0.0 0.0 0.0 0.0 0.0 0.0 0.0 0.0 0.0 0.0 0.0 0.0 0.0 0.0 0.0 0.0 0.0 0.0 0.0 0.0 0.0 0.0 0.0 0.0 0.0
0.3 0.2 0.2 0.2 0.1 0.2 0.2 0.3 0.2 0.3 0.3 0.2 0.1 0.0 0.0 0.0 0.0 0.0 0.0 0.0 0.0 0.0 0.0 0.0 0.0 0.0 0.0 0.0 0.0 0.0 0.0 0.0 0.0 0.0 0.0 0.0 0.0 0.0 0.0 0.0 0.0 0.0 0.0 0.0 0.0 0.0 0.0 0.0 0.0
0.2 0.1 0.1 0.1 0.1 0.1 0.2 0.5 0.4 0.5 0.2 0.1 0.1 0.1 0.1 0.0 0.0 0.0 0.0 0.0 0.1 0.0 0.0 0.1 0.0 0.0 0.0 0.0 0.0 0.0 0.0 0.0 0.0 0.0 0.0 0.0 0.0 0.0 0.0 0.0 0.0 0.0 0.0 0.0 0.0 0.0 0.0 0.0 0.0
0.1 0.1 0.1 0.0 0.0 0.0 0.1 0.5 0.6 0.6 0.2 0.1 0.2 0.1 0.1 0.1 0.1 0.0 0.1 0.1 0.1 0.1 0.1 0.1 0.1 0.1 0.1 0.1 0.1 0.1 0.1 0.0 0.0 0.0 0.0 0.0 0.0 0.0 0.0 0.0 0.0 0.0 0.0 0.0 0.0 0.0 0.0 0.0 0.0
0.4 0.9 1.3 0.1 0.0 0.0 0.5 1.6 0.5 0.4 0.2 0.2 0.2 0.2 0.2 0.2 0.1 0.1 0.1 0.1 0.1 0.1 0.0 0.1 0.1 0.1 0.1 0.1 0.1 0.1 0.1 0.1 0.1 0.1 0.1 0.1 0.1 0.1 0.1 0.0 0.0 0.0 0.0 0.0 0.0 0.0 0.0 0.0 0.0
4.4 5.9 3.7 1.2 0.1 0.2 0.7 1.1 0.5 0.3 0.3 0.3 0.3 0.2 0.3 0.3 0.2 0.2 0.2 0.2 0.1 0.1 0.1 0.1 0.1 0.1 0.2 0.1 0.1 0.1 0.1 0.2 0.2 0.1 0.1 0.2 0.1 0.1 0.1 0.1 0.1 0.0 0.0 0.0 0.0 0.0 0.0 0.0 0.0
5.6 4.3 2.5 1.9 0.5 0.5 1.1 1.0 0.5 0.4 0.3 0.5 0.5 0.4 0.3 0.3 0.3 0.3 0.2 0.2 0.2 0.2 0.1 0.1 0.1 0.1 0.3 0.2 0.2 0.1 0.1 0.2 0.2 0.2 0.2 0.2 0.2 0.2 0.1 0.1 0.1 0.1 0.0 0.1 0.0 0.1 0.0 0.0 0.0
3.2 3.2 2.8 1.3 0.8 1.2 1.4 1.4 0.8 0.5 0.4 0.4 0.5 0.6 0.6 0.5 0.5 0.2 0.2 0.2 0.2 0.2 0.2 0.2 0.2 0.2 0.2 0.3 0.2 0.2 0.3 0.1 0.2 0.2 0.3 0.3 0.2 0.2 0.3 0.2 0.1 0.1 0.1 0.1 0.1 0.1 0.1 0.0 0.0
3.7 4.2 3.2 1.7 1.0 2.0 2.0 2.0 1.0 0.8 0.8 0.8 0.5 0.5 0.6 0.5 0.5 0.4 0.2 0.2 0.2 0.2 0.2 0.2 0.2 0.2 0.2 0.2 0.3 0.3 0.4 0.4 0.3 0.4 0.3 0.4 0.5 0.3 0.3 0.3 0.2 0.2 0.2 0.2 0.3 0.1 0.2 0.1 0.0
4.2 3.7 3.4 3.8 2.5 1.8 3.3 3.5 2.3 1.4 1.0 0.9 0.8 0.6 0.6 0.7 0.7 0.6 0.5 0.3 0.3 0.4 0.3 0.4 0.4 0.4 0.3 0.3 0.2 0.3 0.4 0.4 0.3 0.5 0.5 0.4 0.5 0.5 0.5 0.4 0.3 0.3 0.3 0.3 0.4 0.4 0.6 0.4 0.1
5.2 1.5 2.1 3.6 6.2 8.2 6.2 12.0 4.3 2.3 1.6 1.5 1.2 1.1 0.9 0.8 0.9 0.7 0.5 0.4 0.3 0.4 0.5 0.5 0.5 0.6 0.6 0.3 0.3 0.5 0.7 0.7 0.6 0.8 0.7 0.7 0.8 0.7 0.7 0.6 0.3 0.4 0.4 0.3 0.4 0.4 0.6 0.4 0.6
3.3 0.9 1.9 3.4 7.6 10.7 5.9 11.0 6.9 3.1 2.6 2.7 2.0 1.5 1.2 1.0 1.1 1.1 0.8 0.6 0.4 0.4 0.3 0.4 0.5 0.6 0.6 0.5 0.5 0.7 0.7 0.8 0.8 0.8 0.6 0.5 0.7 1.0 1.0 0.9 0.6 0.4 0.4 0.4 0.5 0.6 0.8 0.7 0.5
1.4 1.8 2.3 3.8 10.1 17.2 7.4 9.7 8.9 6.3 5.0 3.1 2.2 1.9 1.4 1.5 1.0 1.0 0.8 0.6 0.4 0.3 0.3 0.3 0.4 0.5 0.6 0.5 0.6 0.6 0.8 0.8 0.8 0.8 1.0 0.8 0.7 0.7 0.9 1.2 0.9 0.6 0.5 0.5 0.6 0.7 0.7 0.9 0.4
3.7 12.2 23.2 23.2 22.1 13.0 5.4 7.9 10.0 4.9 3.4 3.0 2.8 2.4 1.9 1.9 1.4 1.1 1.0 0.9 0.7 0.5 0.4 0.4 0.3 0.4 0.5 0.5 0.5 0.5 0.6 0.8 0.9 1.0 1.1 1.1 0.9 0.9 0.9 1.1 1.3 1.0 0.6 0.5 0.6 0.8 0.9 0.9 1.0
4.6 8.9 18.2 17.3 11.8 7.5 6.1 8.3 9.1 4.1 3.4 2.9 2.5 2.3 1.9 1.8 1.8 1.5 1.2 1.0 0.9 0.8 0.7 0.6 0.4 0.3 0.4 0.4 0.5 0.4 0.4 0.6 0.8 0.9 1.1 1.4 1.2 1.0 0.9 0.9 1.0 1.2 0.8 0.6 0.6 0.7 0.8 0.9 1.0
6.4 8.6 7.3 14.3 10.5 8.8 8.4 7.7 5.8 2.6 2.5 2.6 2.2 1.9 1.7 1.9 1.7 1.7 1.5 1.4 1.0 1.1 1.0 1.0 0.9 0.5 0.4 0.4 0.5 0.5 0.5 0.4 0.6 0.7 0.9 1.2 1.2 1.1 1.0 1.0 0.9 1.1 1.3 0.8 0.7 1.0 0.9 0.8 1.1
3.4 5.7 11.7 19.4 17.1 12.0 8.0 7.3 8.8 5.5 4.2 3.1 2.6 2.2 1.9 1.7 1.8 1.6 1.7 1.6 1.3 1.3 1.4 1.2 1.1 0.9 0.9 0.7 0.7 0.6 0.6 0.4 0.5 0.6 0.7 1.1 0.8 0.9 0.9 1.0 1.1 1.2 1.2 0.9 0.9 0.8 0.8 1.0 1.2
5.6 9.0 12.6 15.3 13.7 13.5 10.2 9.9 8.2 6.0 4.2 3.5 2.9 2.6 2.4 2.1 2.2 2.2 1.8 1.8 1.7 1.6 1.7 1.7 1.3 1.0 1.1 1.1 1.0 0.9 0.9 0.5 0.4 0.6 0.6 0.8 0.8 0.7 0.8 0.9 1.1 1.3 1.3 1.0 1.0 0.9 1.0 0.9 1.1
4.0 7.5 10.9 17.4 13.2 10.4 11.0 10.5 5.3 4.3 3.8 3.7 3.3 3.1 2.9 2.7 2.5 2.5 2.3 1.9 1.8 1.8 1.7 1.8 1.7 1.4 1.3 1.2 1.1 1.1 1.1 1.2 0.7 0.6 0.7 0.7 0.6 0.8 0.8 0.8 0.9 1.2 1.2 1.3 1.0 1.1 0.9 1.0 1.0